Wind_Speed
80 80 79 78 76 74 73 71 71 71 69 69 68 66 64 61 58 57 54 55 51 49 53 54 55 49 44 41 43 44 45 46 45 46 45 43 46 48
85 84 83 81 77 75 74 72 70 69 69 66 67 69 67 64 62 60 58 56 55 56 59 58 58 53 47 44 46 46 46 51 49 48 46 45 48 48
85 84 83 81 80 78 76 75 74 72 70 67 63 60 61 60 59 58 57 55 52 51 50 52 54 50 50 48 46 48 47 50 52 51 49 47 48 48
84 82 80 79 77 77 77 77 75 73 71 70 64 59 56 55 55 54 54 56 54 50 50 51 51 51 48 48 47 46 48 50 53 55 54 51 50 50
82 81 79 78 76 75 75 75 76 75 73 72 68 62 58 55 54 52 50 50 49 48 52 54 52 52 47 46 49 47 49 57 56 58 59 55 53 53
79 79 78 77 76 74 74 74 75 74 71 69 67 62 59 55 55 53 51 49 48 52 53 53 51 51 45 42 48 50 48 51 56 56 62 59 57 58
73 73 72 72 72 73 73 72 73 71 68 67 65 63 59 56 56 55 54 52 52 58 54 48 53 55 56 51 50 52 51 47 55 60 61 60 57 56
71 71 71 71 70 70 70 70 68 67 66 65 64 62 60 58 58 59 57 54 53 53 51 46 50 51 46 44 44 49 54 51 52 59 61 59 56 54
75 75 74 74 74 74 72 70 68 67 67 66 64 62 62 60 60 60 59 57 53 52 54 49 46 49 46 48 51 58 59 55 51 57 62 59 57 54
85 84 82 80 79 80 77 74 71 69 68 67 66 64 62 61 60 60 58 57 54 49 44 48 50 48 48 51 52 54 53 48 51 57 58 55 52 52
89 86 82 79 75 75 74 72 70 66 64 63 61 59 58 57 57 56 53 51 48 45 41 39 46 52 49 48 48 46 41 43 48 50 50 51 52 55
84 78 73 68 65 63 64 63 62 60 57 55 51 49 50 50 49 47 45 42 39 38 38 39 40 44 45 43 42 41 39 42 47 49 49 51 54 54
77 70 64 59 56 54 53 52 50 49 46 45 43 43 44 44 42 38 36 36 35 38 39 38 37 38 38 35 36 35 37 41 44 47 49 52 52 50
66 60 55 49 45 44 43 42 40 40 39 37 36 34 33 34 33 30 28 29 35 38 38 36 34 33 34 33 35 36 37 38 40 44 47 48 48 47
52 50 48 41 37 35 34 33 33 34 33 30 28 26 25 25 26 26 24 25 33 36 36 34 32 34 33 33 35 37 37 39 42 45 46 46 45 43
39 40 42 37 31 27 26 27 28 28 26 24 23 22 21 23 25 24 22 23 28 33 32 31 28 24 24 27 31 35 39 43 45 45 46 45 43 41
31 31 32 32 27 23 22 22 22 21 20 19 19 19 17 20 24 20 18 17 18 24 28 26 22 20 24 30 34 38 41 44 45 45 44 42 39 35
30 28 27 27 24 19 18 16 15 17 18 17 16 15 17 21 22 18 13 13 13 13 14 15 17 20 25 30 34 39 42 43 42 42 41 38 34 29
29 26 24 22 17 16 14 12 13 14 13 11 11 13 17 17 16 16 15 17 15 12 13 16 18 23 28 33 36 38 39 39 38 36 34 35 37 37
27 24 21 15 13 14 11 8 8 8 7 6 7 10 12 14 14 15 20 20 15 12 14 18 22 27 32 33 34 33 32 31 33 37 39 41 42 42
22 20 15 11 14 12 10 7 4 3 5 5 4 5 9 11 14 18 20 18 14 14 17 21 25 29 30 31 31 30 32 37 41 42 43 42 41 37
19 15 9 14 14 12 11 5 3 5 6 6 7 8 8 11 14 14 12 10 11 15 19 22 25 27 28 29 34 38 41 43 42 39 34 29 22 14
15 9 11 16 14 12 10 4 5 8 9 12 13 13 12 13 10 5 4 7 12 16 19 21 24 26 31 36 39 40 38 33 25 17 13 11 10 9
Wind_Direction
287 287 287 287 287 286 286 286 285 283 279 277 278 277 277 278 279 279 278 279 278 273 266 276 280 277 276 274 270 274 276 273 276 278 279 280 280 281
290 289 289 288 288 289 288 287 286 286 283 283 282 281 280 279 278 278 280 280 277 273 273 274 276 278 274 275 269 268 264 264 272 279 277 282 283 284
287 287 287 288 288 289 289 288 288 288 288 287 285 281 279 279 278 279 280 280 280 278 275 274 274 273 272 273 270 266 267 267 269 274 276 284 285 286
285 285 286 286 287 287 286 287 287 286 286 286 285 282 280 279 278 279 278 277 280 275 270 272 270 268 273 270 271 265 266 268 269 270 274 281 285 286
286 286 286 286 286 286 286 287 286 285 284 285 285 284 283 282 282 282 278 274 273 267 265 269 268 265 267 269 264 261 261 260 263 270 273 278 280 281
289 289 289 289 289 288 287 287 286 285 285 285 285 284 283 282 283 281 278 275 269 263 259 261 261 262 260 268 272 266 261 256 258 261 269 274 274 275
291 290 290 290 290 290 289 287 285 284 283 282 281 281 282 283 283 280 277 274 269 263 265 260 258 256 257 260 263 265 262 263 257 253 263 266 270 278
289 288 287 287 286 286 286 286 285 284 282 280 280 281 282 282 281 280 278 273 266 268 271 269 261 250 256 256 259 268 265 267 263 257 258 261 272 283
292 290 288 287 286 284 282 282 283 282 282 281 280 280 280 281 282 281 277 269 264 264 263 264 259 248 255 260 266 268 267 266 263 256 254 264 274 283
294 293 291 288 286 284 281 280 279 279 280 281 281 282 283 283 281 279 276 270 262 260 258 263 258 252 260 256 257 264 265 260 257 256 260 267 277 288
296 295 293 290 286 284 281 278 277 277 278 279 280 281 281 279 277 275 274 270 263 256 249 257 259 256 260 253 257 258 256 255 252 256 265 272 281 292
299 298 296 292 287 283 281 278 277 276 276 276 276 276 274 272 269 270 271 267 256 255 254 263 261 258 260 255 252 250 253 251 251 259 271 277 285 291
300 299 296 292 287 282 279 278 277 276 275 275 273 270 267 266 266 265 263 261 256 261 261 261 259 255 255 249 244 249 254 255 258 268 278 283 287 288
300 298 296 292 285 279 275 274 273 274 275 275 275 273 267 262 260 254 254 253 254 257 259 260 252 253 253 239 240 248 257 262 271 278 283 286 287 288
300 298 296 291 283 275 269 264 264 268 273 278 276 270 261 253 241 242 254 252 254 257 259 255 247 247 240 237 243 251 260 271 280 287 288 287 286 286
298 297 295 291 283 271 258 252 256 267 277 276 270 262 253 238 235 247 261 262 255 247 244 242 234 232 235 242 248 258 273 283 288 288 285 284 284 285
297 296 295 290 282 264 243 241 257 272 279 274 258 246 235 231 239 252 266 264 241 231 230 224 222 232 243 252 262 273 282 285 285 284 283 284 284 281
306 306 298 289 276 247 228 241 266 281 281 266 244 224 221 231 241 247 244 222 207 203 201 211 229 248 263 272 277 281 284 285 284 284 284 284 282 279
309 306 299 288 260 224 223 241 265 276 272 256 232 222 229 237 243 238 226 212 208 214 227 241 257 272 281 283 284 284 285 286 286 287 287 285 283 283
310 307 301 277 225 209 218 236 253 276 260 232 231 231 227 228 231 225 210 203 211 233 254 268 281 288 287 285 286 287 289 291 290 289 288 287 286 285
308 307 296 232 202 201 203 212 262 235 199 216 215 208 207 216 218 204 197 203 226 255 271 280 286 289 289 292 295 295 295 295 293 292 291 289 286 283
310 305 265 198 194 194 195 209 236 159 160 188 179 158 157 167 175 184 197 226 261 279 287 294 298 300 301 301 300 300 300 299 297 294 289 285 282 275
306 291 200 187 189 192 195 193 154 150 158 158 146 137 146 157 165 185 249 282 292 302 308 310 310 309 307 306 307 306 306 307 304 297 289 281 281 283
Height
5607 5601 5595 5590 5585 5581 5576 5570 5564 5561 5563 5563 5556 5556 5555 5552 5549 5546 5542 5542 5539 5536 5536 5536 5535 5535 5534 5533 5532 5530 5529 5528 5528 5528 5528 5527 5526 5523
5585 5579 5574 5569 5564 5560 5555 5551 5544 5538 5537 5544 5541 5539 5535 5534 5535 5531 5527 5524 5522 5520 5520 5519 5518 5519 5520 5519 5518 5517 5516 5517 5516 5516 5516 5515 5513 5511
5563 5557 5553 5547 5542 5538 5533 5529 5526 5521 5514 5521 5519 5518 5515 5513 5514 5512 5509 5505 5504 5503 5502 5501 5501 5503 5503 5503 5503 5503 5503 5503 5503 5503 5503 5502 5500 5497
5539 5534 5530 5525 5521 5516 5510 5507 5504 5500 5492 5491 5498 5497 5495 5493 5492 5491 5490 5488 5487 5486 5484 5483 5485 5487 5487 5487 5487 5488 5488 5488 5488 5489 5490 5488 5486 5483
5516 5510 5505 5500 5496 5491 5487 5484 5481 5478 5473 5468 5473 5476 5475 5474 5472 5473 5472 5469 5468 5469 5469 5467 5467 5469 5471 5470 5471 5471 5473 5474 5474 5474 5475 5474 5472 5469
5492 5487 5482 5475 5470 5467 5463 5461 5458 5455 5454 5451 5449 5452 5454 5454 5452 5452 5452 5450 5449 5447 5446 5447 5448 5451 5453 5454 5454 5456 5457 5458 5459 5460 5459 5459 5457 5455
5470 5465 5459 5453 5446 5441 5438 5437 5435 5433 5432 5430 5428 5429 5432 5434 5432 5430 5430 5429 5430 5428 5430 5431 5431 5434 5437 5438 5439 5441 5442 5443 5444 5444 5444 5443 5442 5441
5450 5445 5440 5432 5425 5421 5416 5414 5412 5409 5409 5407 5408 5409 5410 5410 5409 5407 5407 5407 5409 5413 5410 5412 5414 5415 5418 5421 5424 5425 5426 5426 5428 5430 5430 5429 5428 5426
5425 5420 5415 5409 5403 5397 5395 5394 5393 5389 5385 5384 5385 5389 5387 5388 5385 5385 5384 5383 5387 5391 5392 5393 5395 5399 5402 5404 5406 5408 5409 5411 5412 5414 5415 5415 5414 5411
5398 5391 5386 5382 5375 5367 5368 5370 5371 5369 5366 5363 5362 5365 5365 5366 5363 5362 5361 5362 5366 5372 5376 5379 5382 5384 5385 5387 5389 5390 5393 5395 5397 5400 5401 5401 5399 5394
5372 5365 5357 5352 5347 5339 5338 5342 5345 5347 5345 5344 5344 5345 5345 5345 5343 5341 5342 5344 5348 5354 5360 5365 5366 5368 5370 5372 5375 5378 5379 5381 5383 5386 5387 5386 5383 5378
5345 5338 5331 5325 5321 5317 5314 5316 5320 5324 5325 5327 5327 5327 5326 5326 5326 5327 5329 5331 5334 5340 5346 5349 5351 5354 5357 5360 5362 5365 5367 5369 5371 5373 5373 5370 5367 5362
5320 5314 5309 5303 5301 5299 5296 5297 5300 5304 5307 5309 5311 5311 5310 5311 5313 5316 5317 5320 5324 5329 5334 5336 5339 5342 5345 5348 5350 5353 5356 5358 5359 5359 5358 5355 5351 5347
5299 5294 5290 5286 5284 5283 5283 5284 5287 5290 5293 5295 5296 5297 5298 5300 5303 5306 5308 5311 5314 5317 5321 5325 5329 5332 5334 5336 5339 5342 5344 5346 5346 5344 5342 5339 5335 5332
5283 5277 5273 5272 5271 5271 5272 5274 5277 5280 5282 5284 5285 5286 5287 5290 5294 5298 5301 5304 5306 5308 5312 5315 5318 5320 5323 5326 5329 5332 5334 5333 5331 5329 5326 5323 5320 5318
5273 5268 5262 5261 5261 5261 5262 5265 5269 5272 5274 5275 5276 5277 5279 5282 5286 5290 5293 5295 5296 5299 5303 5306 5309 5312 5315 5319 5322 5323 5322 5319 5316 5313 5311 5308 5306 5304
5263 5260 5255 5252 5251 5252 5255 5259 5264 5266 5267 5268 5268 5269 5272 5277 5280 5283 5286 5287 5288 5290 5295 5298 5302 5306 5309 5311 5312 5310 5308 5305 5302 5299 5295 5293 5292 5291
5253 5251 5247 5244 5243 5246 5250 5256 5259 5261 5261 5262 5262 5264 5267 5271 5276 5279 5282 5284 5287 5289 5291 5294 5297 5299 5301 5301 5300 5297 5293 5290 5287 5284 5281 5278 5276 5277
5245 5243 5240 5237 5238 5242 5247 5252 5255 5256 5257 5258 5259 5262 5265 5269 5272 5276 5279 5282 5284 5286 5289 5290 5291 5292 5291 5290 5286 5283 5279 5275 5272 5270 5268 5264 5260 5261
5239 5236 5234 5233 5235 5240 5245 5249 5251 5253 5254 5256 5258 5260 5262 5266 5270 5272 5275 5279 5281 5283 5285 5285 5285 5283 5280 5277 5274 5270 5266 5262 5258 5254 5252 5249 5246 5244
5234 5231 5229 5230 5235 5239 5244 5246 5249 5251 5252 5254 5256 5257 5260 5263 5267 5270 5273 5276 5278 5279 5279 5278 5276 5273 5269 5264 5260 5258 5255 5249 5243 5238 5234 5231 5228 5227
5228 5227 5227 5230 5235 5240 5243 5245 5247 5249 5252 5253 5256 5257 5260 5263 5267 5270 5272 5274 5275 5274 5272 5269 5266 5261 5257 5254 5249 5245 5241 5235 5227 5222 5217 5214 5214 5214
5224 5224 5226 5231 5236 5240 5243 5245 5246 5248 5250 5253 5256 5259 5262 5265 5268 5270 5271 5271 5270 5267 5265 5261 5257 5253 5249 5243 5236 5230 5224 5218 5212 5208 5206 5206 5207 5208